| time (UTC) | temp F | wind direction | speed MPH | gust MPH | rain 1hr in | rain 24hr in | rain mn in | humidity % | barometer mb |
| 20260502185920 | 62 | 0.0 | 1.0 | 0.00 | 0.20 | 0.20 | 74 | 1011.7 | |
| 20260502184920 | 62 | 45 | 1.0 | 2.0 | 0.00 | 0.20 | 0.20 | 74 | 1011.8 |
| 20260502183952 | 63 | 0 | 2.0 | 3.0 | 0.00 | 0.20 | 0.20 | 74 | 1011.6 |
| 20260502182930 | 63 | 45 | 2.0 | 3.0 | 0.00 | 0.20 | 0.20 | 74 | 1011.8 |
| 20260502181919 | 63 | 45 | 2.0 | 3.0 | 0.00 | 0.20 | 0.20 | 73 | 1011.9 |
| 20260502180920 | 63 | 0 | 2.0 | 3.0 | 0.00 | 0.20 | 0.20 | 74 | 1011.9 |
| 20260502170519 | 67 | 45 | 5.0 | 6.0 | 0.00 | 0.20 | 0.20 | 60 | 1012.4 |
| 20260502163551 | 67 | 45 | 3.0 | 4.0 | 0.00 | 0.20 | 0.20 | 63 | 1012.6 |
| 20260502162519 | 67 | 23 | 4.0 | 6.0 | 0.00 | 0.20 | 0.20 | 64 | 1012.8 |
| 20260502161519 | 67 | 45 | 2.0 | 4.0 | 0.00 | 0.20 | 0.20 | 64 | 1012.8 |
| 20260502160519 | 67 | 338 | 4.0 | 6.0 | 0.00 | 0.20 | 0.20 | 63 | 1013.1 |
| 20260502151519 | 69 | 23 | 3.0 | 4.0 | 0.00 | 0.20 | 0.20 | 60 | 1013.7 |
| 20260502150541 | 70 | 23 | 3.0 | 4.0 | 0.00 | 0.20 | 0.20 | 60 | 1013.8 |
| 20260502130519 | 74 | 68 | 1.0 | 2.0 | 0.00 | 0.20 | 0.20 | 51 | 1015.5 |
| 20260502123611 | 74 | 248 | 4.0 | 8.0 | 0.00 | 0.20 | 0.20 | 50 | 1015.8 |
| 20260502122551 | 74 | 180 | 3.0 | 5.0 | 0.00 | 0.20 | 0.20 | 51 | 1016.1 |
| 20260502121551 | 74 | 158 | 3.0 | 5.0 | 0.00 | 0.20 | 0.20 | 49 | 1016.2 |
| 20260502120539 | 73 | 45 | 1.0 | 3.0 | 0.00 | 0.20 | 0.20 | 54 | 1016.4 |
| 20260502115529 | 72 | 338 | 1.0 | 2.0 | 0.00 | 0.20 | 0.20 | 57 | 1016.4 |
| 20260502114550 | 72 | 248 | 1.0 | 2.0 | 0.00 | 0.20 | 0.20 | 55 | 1016.7 |
| 20260502113519 | 73 | 0.0 | 1.0 | 0.00 | 0.20 | 0.20 | 55 | 1016.8 | |
| 20260502112610 | 74 | 248 | 3.0 | 4.0 | 0.00 | 0.20 | 0.20 | 54 | 1016.9 |
| 20260502111523 | 72 | 225 | 1.0 | 3.0 | 0.00 | 0.20 | 0.20 | 56 | 1017.0 |
| 20260502110540 | 72 | 248 | 2.0 | 2.0 | 0.00 | 0.20 | 0.20 | 51 | 1017.2 |
| 20260502105518 | 71 | 158 | 1.0 | 2.0 | 0.00 | 0.20 | 0.20 | 50 | 1017.2 |
| 20260502104520 | 69 | 225 | 3.0 | 4.0 | 0.00 | 0.20 | 0.20 | 53 | 1017.4 |
| 20260502103600 | 69 | 203 | 1.0 | 2.0 | 0.00 | 0.20 | 0.20 | 56 | 1017.4 |
| 20260502102520 | 69 | 0.0 | 1.0 | 0.00 | 0.20 | 0.20 | 64 | 1017.5 | |
| 20260502101530 | 68 | 90 | 2.0 | 4.0 | 0.00 | 0.20 | 0.20 | 60 | 1017.6 |
| 20260502100529 | 68 | 225 | 2.0 | 3.0 | 0.00 | 0.20 | 0.20 | 60 | 1017.9 |
| 20260502090543 | 63 | 270 | 1.0 | 2.0 | 0.00 | 0.20 | 0.20 | 74 | 1018.1 |
| 20260502070549 | 58 | 180 | 3.0 | 7.0 | 0.01 | 0.20 | 0.20 | 90 | 1018.3 |
| 20260502065521 | 57 | 270 | 1.0 | 2.0 | 0.01 | 0.20 | 0.20 | 91 | 1018.2 |
| 20260502064520 | 56 | 0.0 | 1.0 | 0.01 | 0.20 | 0.20 | 92 | 1018.3 | |
| 20260502063541 | 56 | 225 | 2.0 | 8.0 | 0.01 | 0.20 | 0.20 | 92 | 1018.3 |
| 20260502062520 | 55 | 0.0 | 2.0 | 0.01 | 0.20 | 0.20 | 92 | 1018.3 | |
| 20260502061521 | 55 | 248 | 2.0 | 4.0 | 0.00 | 0.19 | 0.19 | 92 | 1018.4 |
| 20260502060602 | 55 | 225 | 1.0 | 2.0 | 0.00 | 0.19 | 0.19 | 92 | 1018.3 |
| 20260502055531 | 56 | 0.0 | 2.0 | 0.00 | 0.19 | 0.19 | 92 | 1018.4 | |
| 20260502054738 | 56 | 0.0 | 2.0 | 0.00 | 0.19 | 0.19 | 93 | 1018.2 | |
| 20260502053849 | 56 | 225 | 1.0 | 3.0 | 0.00 | 0.19 | 0.19 | 93 | 1018.2 |
| 20260502052903 | 56 | 225 | 1.0 | 2.0 | 0.00 | 0.19 | 0.19 | 93 | 1017.9 |
| 20260502051821 | 56 | 0.0 | 0.0 | 0.00 | 0.19 | 0.19 | 93 | 1017.9 | |
| 20260502050820 | 56 | 0.0 | 0.0 | 0.00 | 0.19 | 0.19 | 93 | 1017.7 | |
| 20260502045901 | 56 | 203 | 2.0 | 3.0 | 0.00 | 0.19 | 0.19 | 93 | 1017.7 |
| 20260502044853 | 56 | 0.0 | 1.0 | 0.00 | 0.19 | 0.19 | 92 | 1017.6 | |
| 20260502043840 | 56 | 0.0 | 0.0 | 0.00 | 0.19 | 0.19 | 92 | 1017.8 | |
| 20260502042820 | 56 | 0.0 | 1.0 | 0.00 | 0.19 | 0.19 | 92 | 1017.9 | |
| 20260502041820 | 56 | 203 | 1.0 | 2.0 | 0.00 | 0.19 | 0.19 | 92 | 1017.9 |
| 20260502040831 | 56 | 0.0 | 0.0 | 0.00 | 0.19 | 0.19 | 92 | 1017.9 | |
| 20260502035852 | 56 | 0.0 | 0.0 | 0.00 | 0.19 | 0.19 | 92 | 1018.0 | |
| 20260502034921 | 56 | 0.0 | 1.0 | 0.00 | 0.19 | 0.19 | 92 | 1018.1 | |
| 20260502033831 | 56 | 0.0 | 1.0 | 0.00 | 0.19 | 0.19 | 92 | 1018.1 | |
| 20260502032820 | 57 | 270 | 1.0 | 2.0 | 0.02 | 0.19 | 0.19 | 92 | 1018.1 |
| 20260502031820 | 57 | 270 | 1.0 | 2.0 | 0.04 | 0.19 | 0.19 | 92 | 1018.2 |
| 20260502030841 | 58 | 225 | 1.0 | 2.0 | 0.06 | 0.19 | 0.19 | 92 | 1018.2 |
| 20260502025820 | 58 | 248 | 1.0 | 2.0 | 0.06 | 0.19 | 0.19 | 92 | 1018.3 |
| 20260502024821 | 58 | 248 | 2.0 | 2.0 | 0.08 | 0.19 | 0.19 | 92 | 1018.2 |
| 20260502023840 | 58 | 0.0 | 1.0 | 0.09 | 0.19 | 0.19 | 92 | 1018.5 | |
| 20260502022822 | 58 | 180 | 2.0 | 3.0 | 0.17 | 0.17 | 0.17 | 91 | 1018.7 |
| 20260502021820 | 58 | 225 | 1.0 | 2.0 | 0.14 | 0.15 | 0.15 | 91 | 1018.5 |
| 20260502020841 | 58 | 248 | 1.0 | 3.0 | 0.12 | 0.13 | 0.13 | 91 | 1018.7 |
| 20260502015902 | 58 | 270 | 1.0 | 2.0 | 0.13 | 0.13 | 0.13 | 91 | 1018.8 |
| 20260502014821 | 58 | 270 | 2.0 | 2.0 | 0.11 | 0.11 | 0.11 | 90 | 1018.8 |
| 20260502013820 | 58 | 270 | 2.0 | 2.0 | 0.09 | 0.09 | 0.09 | 89 | 1019.0 |
| 20260502012821 | 58 | 225 | 2.0 | 4.0 | 0.01 | 0.01 | 0.01 | 86 | 1019.1 |
| 20260502011833 | 58 | 225 | 2.0 | 4.0 | 0.01 | 0.01 | 0.01 | 85 | 1018.9 |
| 20260502010823 | 58 | 225 | 1.0 | 2.0 | 0.01 | 0.01 | 0.01 | 84 | 1018.8 |
| 20260502005832 | 59 | 270 | 1.0 | 1.0 | 0.00 | 0.00 | 0.00 | 84 | 1018.7 |
| 20260502004822 | 59 | 0.0 | 0.0 | 0.00 | 0.00 | 0.00 | 83 | 1018.7 | |
| 20260502003820 | 59 | 0.0 | 0.0 | 0.00 | 0.00 | 0.00 | 83 | 1018.7 | |
| 20260502002840 | 59 | 0.0 | 1.0 | 0.00 | 0.00 | 0.00 | 83 | 1018.7 | |
| 20260502001840 | 59 | 248 | 1.0 | 1.0 | 0.00 | 0.00 | 0.00 | 83 | 1018.6 |
| 20260502000831 | 59 | 248 | 1.0 | 2.0 | 0.00 | 0.00 | 0.00 | 84 | 1018.9 |
| 20260501235822 | 59 | 248 | 1.0 | 2.0 | 0.00 | 0.00 | 0.00 | 84 | 1018.9 |
| 20260501234820 | 59 | 0.0 | 0.0 | 0.00 | 0.00 | 0.00 | 84 | 1019.1 | |
| 20260501233820 | 59 | 0.0 | 0.0 | 0.00 | 0.00 | 0.00 | 83 | 1019.0 | |
| 20260501232831 | 59 | 0.0 | 0.0 | 0.00 | 0.00 | 0.00 | 83 | 1019.1 | |
| 20260501231832 | 59 | 0.0 | 0.0 | 0.00 | 0.00 | 0.00 | 81 | 1019.1 | |
| 20260501230822 | 59 | 203 | 1.0 | 1.0 | 0.00 | 0.00 | 0.00 | 81 | 1019.2 |
| 20260501225842 | 59 | 0.0 | 0.0 | 0.00 | 0.00 | 0.00 | 79 | 1019.2 | |
| 20260501224820 | 59 | 0.0 | 1.0 | 0.00 | 0.00 | 0.00 | 78 | 1019.2 | |
| 20260501223820 | 59 | 0.0 | 0.0 | 0.00 | 0.00 | 0.00 | 77 | 1019.4 | |
| 20260501222900 | 59 | 0.0 | 0.0 | 0.00 | 0.00 | 0.00 | 77 | 1019.5 | |
| 20260501221820 | 59 | 0.0 | 1.0 | 0.00 | 0.00 | 0.00 | 77 | 1019.8 | |
| 20260501220831 | 59 | 225 | 1.0 | 2.0 | 0.00 | 0.00 | 0.00 | 76 | 1019.8 |
| 20260501215850 | 59 | 225 | 1.0 | 2.0 | 0.00 | 0.00 | 0.00 | 76 | 1020.0 |
| 20260501214820 | 58 | 225 | 2.0 | 4.0 | 0.00 | 0.00 | 0.00 | 74 | 1020.2 |
| 20260501213830 | 58 | 270 | 2.0 | 3.0 | 0.00 | 0.00 | 0.00 | 73 | 1020.4 |
| 20260501212819 | 58 | 0.0 | 1.0 | 0.00 | 0.00 | 0.00 | 73 | 1020.2 | |
| 20260501211819 | 58 | 0.0 | 0.0 | 0.00 | 0.00 | 0.00 | 72 | 1020.1 | |
| 20260501210820 | 58 | 0.0 | 0.0 | 0.00 | 0.00 | 0.00 | 71 | 1019.7 | |
| 20260501205910 | 58 | 0.0 | 0.0 | 0.00 | 0.00 | 0.00 | 71 | 1019.5 | |
| 20260501204853 | 58 | 0.0 | 0.0 | 0.00 | 0.00 | 0.00 | 71 | 1019.7 | |
| 20260501203820 | 58 | 0.0 | 0.0 | 0.00 | 0.00 | 0.00 | 71 | 1019.6 | |
| 20260501202819 | 59 | 0.0 | 0.0 | 0.00 | 0.00 | 0.00 | 72 | 1019.5 | |
| 20260501201819 | 59 | 0.0 | 0.0 | 0.00 | 0.00 | 0.00 | 71 | 1019.5 | |
| 20260501200839 | 59 | 0.0 | 0.0 | 0.00 | 0.00 | 0.00 | 71 | 1019.6 | |
| 20260501195819 | 60 | 0.0 | 0.0 | 0.00 | 0.00 | 0.00 | 70 | 1019.6 | |
| 20260501194819 | 60 | 0.0 | 0.0 | 0.00 | 0.00 | 0.00 | 69 | 1019.6 | |
| 20260501193839 | 60 | 0.0 | 0.0 | 0.00 | 0.00 | 0.00 | 69 | 1019.6 | |
| 20260501192819 | 61 | 0.0 | 0.0 | 0.00 | 0.00 | 0.00 | 68 | 1019.5 | |
| 20260501191830 | 62 | 0.0 | 1.0 | 0.00 | 0.00 | 0.00 | 67 | 1019.4 | |
| 20260501190819 | 62 | 338 | 1.0 | 2.0 | 0.00 | 0.00 | 0.00 | 67 | 1019.3 |